EHI
3 2 1 1 0 0 0 0 0 0 0 0 0 0 1 2 1 0 0 0 0 0 0 0 0 1 2 1 0 0 0 0 0 0 0 0 0 0 0 0 0 0 0
4 3 2 1 0 0 0 0 0 0 0 0 0 0 1 1 0 0 0 0 0 0 0 0 0 1 2 1 0 0 0 0 0 0 0 0 0 0 0 0 0 0 0
4 3 3 2 1 1 1 0 0 0 0 0 0 1 0 0 0 0 0 0 0 0 0 0 0 0 1 1 0 0 0 0 0 0 0 0 0 0 0 0 0 0 0
4 3 2 3 3 3 2 1 1 0 0 0 0 0 0 0 0 0 0 0 0 0 0 0 0 0 0 0 0 0 0 2 2 1 0 0 0 0 0 0 1 1 0
3 3 2 3 3 3 2 2 1 0 1 1 1 0 0 0 0 0 0 0 0 0 0 0 0 0 0 0 0 0 1 4 4 2 0 0 0 0 0 1 2 2 1
2 2 1 1 1 1 1 1 1 0 1 1 1 0 0 0 0 0 0 0 0 0 0 0 1 0 0 0 0 0 2 3 3 1 0 0 0 0 0 1 2 2 1
1 0 0 0 0 0 0 1 1 1 1 1 0 0 0 0 0 0 0 0 0 0 0 0 0 0 0 0 0 1 2 2 1 0 0 0 0 1 0 1 1 1 0
0 0 0 1 1 0 0 1 1 1 2 2 1 0 0 0 0 0 0 0 0 0 0 0 0 0 0 0 0 1 2 1 0 0 0 0 0 0 0 0 0 0 0
0 0 0 0 1 1 0 0 0 1 2 3 2 0 0 0 0 0 0 0 0 0 0 0 0 0 0 0 0 1 2 2 0 0 0 0 0 0 0 0 0 0 0
1 1 1 0 0 0 0 0 0 0 2 3 3 1 0 0 0 0 0 0 0 0 0 0 0 0 0 0 0 1 1 1 0 0 0 0 0 0 0 0 0 0 0
1 2 1 0 0 0 0 0 0 0 1 2 1 0 0 0 0 0 0 0 0 0 0 0 0 0 0 0 0 0 0 0 0 0 0 0 0 0 0 0 0 0 1
0 1 1 0 0 0 0 0 0 0 0 0 0 0 0 0 0 0 0 0 0 0 0 0 0 0 0 0 0 0 0 0 0 0 0 0 0 0 0 1 1 1 3
0 0 0 0 0 0 0 0 0 0 0 0 0 0 0 0 0 0 0 0 0 0 0 0 0 0 0 0 0 0 0 0 0 0 0 0 0 0 0 1 1 2 3
1 0 0 0 1 1 1 0 0 0 0 0 0 0 0 0 0 0 0 0 0 0 0 0 0 0 0 0 0 0 0 0 0 0 0 0 0 0 0 2 3 2 1
2 1 0 1 1 2 1 0 0 0 0 0 0 0 0 0 0 0 0 0 0 0 0 0 0 0 0 0 0 0 0 0 0 0 0 0 0 1 2 3 4 2 0
2 1 1 1 1 1 1 0 0 0 0 0 0 0 0 0 0 0 0 0 0 0 0 0 0 0 0 0 0 0 0 0 0 0 0 0 1 2 3 3 3 2 1
1 1 2 1 0 0 0 0 0 0 0 0 0 0 0 0 0 0 0 0 0 0 0 0 0 0 0 0 0 0 0 0 0 0 0 1 1 2 2 2 2 3 3
2 2 2 1 0 0 0 0 0 0 0 0 0 0 0 0 0 0 0 0 0 0 0 0 0 0 0 0 0 0 0 0 0 0 0 0 0 1 1 1 2 2 3
2 1 1 0 0 0 0 0 0 0 0 0 0 0 0 0 0 0 0 0 0 0 0 0 0 0 0 0 0 0 0 0 0 0 0 0 0 0 0 1 1 1 1
1 0 0 0 0 0 0 0 0 0 0 0 0 0 0 0 0 0 0 0 0 0 0 0 0 0 0 0 0 0 0 0 0 0 0 0 0 0 0 0 0 0 0
0 0 0 0 0 0 0 0 0 0 0 0 0 0 0 0 0 0 0 0 0 0 0 0 0 0 0 0 0 0 0 0 0 0 0 0 0 0 0 0 0 0 0
1 1 0 0 0 0 0 0 0 0 0 0 0 0 0 0 0 0 0 0 0 0 0 0 0 0 0 0 0 0 0 0 0 0 0 0 0 0 0 0 0 0 0
2 1 1 0 0 0 0 0 0 0 0 0 0 0 0 0 0 0 0 0 0 0 0 0 0 0 0 0 0 0 0 0 0 0 0 0 0 0 0 0 0 0 0
1 1 1 1 0 0 0 0 0 0 0 0 0 0 0 0 0 0 0 0 0 0 0 0 0 0 0 0 0 0 0 0 0 0 0 0 0 0 0 0 0 0 0
0 0 1 1 0 0 0 0 0 0 0 0 0 0 0 0 0 0 0 0 0 0 0 0 0 0 0 0 0 0 0 0 0 0 0 0 0 0 0 0 0 0 0
0 0 0 1 0 0 0 0 0 0 0 0 0 0 0 0 0 0 0 0 0 0 0 0 0 0 0 0 0 0 0 0 0 0 0 0 0 0 0 0 0 0 0
Wind_Speed
6 8 10 10 10 10 10 10 10 9 9 9 9 9 10 10 10 10 10 10 10 10 10 10 10 10 10 10 10 10 9 9 9 9 9 10 10 9 9 8 7 7 9
8 9 11 10 10 10 11 10 10 10 10 10 9 9 9 10 10 10 10 10 11 11 11 10 10 10 10 9 9 9 8 7 7 7 8 8 9 9 9 9 9 6 9
8 8 9 10 10 10 11 10 10 10 10 10 10 9 9 9 10 10 10 10 10 11 10 10 9 9 9 9 9 8 8 6 5 4 4 4 6 9 10 9 9 9 9
8 8 8 9 9 10 10 10 10 10 10 10 10 9 9 9 10 9 9 10 10 10 10 9 9 9 9 9 9 8 7 5 5 4 3 5 5 9 10 10 9 9 9
9 9 8 9 9 9 9 9 9 9 10 10 9 9 9 9 9 9 9 9 9 9 10 9 9 9 9 9 9 8 7 6 6 5 5 6 6 9 10 10 10 9 9
8 9 8 9 9 8 8 9 9 9 9 9 9 9 9 9 9 8 9 9 10 10 9 10 10 10 9 9 9 8 7 7 6 4 5 6 5 9 10 9 9 9 9
8 8 9 9 9 9 8 9 9 9 9 9 9 9 9 9 9 8 8 9 9 9 9 9 10 10 9 9 8 7 7 7 4 4 5 6 6 10 10 9 9 9 9
7 8 9 10 9 8 9 9 9 9 9 8 9 9 9 9 8 8 8 9 9 9 9 9 9 9 9 8 7 7 7 7 5 6 6 5 8 10 9 9 9 8 8
6 7 8 8 8 9 9 9 8 8 8 7 7 7 7 8 8 8 8 9 9 9 9 9 8 8 8 7 6 6 6 7 4 3 6 5 9 10 10 9 9 8 8
5 5 6 6 7 8 7 8 8 7 7 6 6 6 6 7 7 8 8 8 9 8 8 8 7 7 6 6 5 5 5 5 4 5 4 6 11 10 10 9 8 8 8
5 5 4 5 5 6 7 8 7 7 6 6 5 5 5 3 4 5 8 8 8 7 7 6 6 6 5 3 3 3 4 2 4 4 4 10 11 11 10 9 8 8 8
4 4 4 4 5 6 5 5 3 4 4 3 3 3 2 3 3 5 6 7 7 5 4 4 4 3 2 1 1 2 2 3 4 4 6 11 11 10 10 9 8 8 8
5 4 4 4 5 6 4 4 2 2 2 2 3 3 3 3 3 3 2 3 3 3 1 2 1 1 1 2 2 2 3 4 4 5 6 11 10 10 10 10 9 9 9
5 5 4 4 4 6 5 3 3 2 2 2 2 3 3 2 2 1 1 2 2 1 1 1 1 2 2 3 4 4 4 4 4 4 6 11 10 10 10 11 10 10 9
5 4 5 4 5 5 4 2 3 3 2 3 2 2 3 2 2 1 1 2 2 2 2 1 2 3 4 5 4 5 5 5 5 5 4 10 12 11 11 11 11 10 10
5 5 5 4 4 5 4 3 3 3 3 3 2 2 3 2 2 2 2 3 2 1 2 2 3 3 3 3 4 5 4 4 4 5 4 6 10 11 11 12 11 11 10
5 6 5 4 4 5 5 4 3 2 3 3 2 2 3 3 3 3 3 2 2 2 3 3 3 3 3 3 4 4 4 4 4 5 4 3 4 8 10 11 12 11 11
5 6 5 4 4 5 5 3 2 3 3 2 2 2 2 3 4 3 2 2 2 3 2 2 2 3 3 3 3 3 3 3 4 4 3 4 3 4 6 10 11 12 11
4 6 5 4 4 5 4 3 3 3 3 2 2 2 3 3 4 3 2 1 3 2 2 2 3 2 3 3 2 3 2 3 3 4 4 4 4 4 3 6 9 10 11
4 5 5 4 4 5 3 3 3 3 2 2 2 3 3 3 4 3 2 2 3 2 2 2 2 2 2 2 3 3 2 2 2 3 3 4 3 4 4 4 3 6 10
4 4 6 4 4 4 2 2 2 2 1 2 2 3 2 2 3 3 2 3 3 2 2 2 2 2 1 2 2 2 2 2 3 2 2 3 3 4 4 4 3 3 4
4 3 5 5 4 5 2 2 2 2 1 2 1 1 1 2 2 3 2 2 2 2 2 2 2 1 0 0 1 2 1 2 2 2 2 3 3 3 4 4 4 4 4
4 3 4 5 5 5 4 3 2 2 2 1 1 1 1 2 2 2 3 2 2 2 2 1 2 1 1 1 1 1 2 1 1 1 2 3 3 3 3 3 4 4 5
4 3 4 5 5 5 4 3 2 2 1 1 1 1 1 2 2 2 2 2 2 2 2 1 2 0 1 0 1 1 1 2 2 1 1 2 3 3 3 3 4 4 4
5 3 3 5 5 5 3 3 2 1 1 1 1 1 2 2 2 2 1 1 1 1 2 1 1 0 0 0 0 1 1 1 1 2 1 1 1 2 2 2 3 3 4
5 4 3 4 5 4 3 3 2 2 2 2 2 1 1 1 1 2 1 0 1 1 1 1 1 1 1 1 0 0 1 1 1 2 2 2 2 1 1 2 3 2 3
Wind_Direction
77 77 69 69 67 65 66 67 69 72 75 77 75 71 68 67 70 74 73 75 73 71 71 72 74 76 75 74 75 75 76 80 80 82 82 79 77 76 71 65 68 72 71
91 88 79 73 71 69 69 70 72 71 73 76 78 73 69 69 71 73 74 76 73 70 67 67 75 76 74 75 78 78 78 78 81 84 85 81 79 77 74 69 69 71 71
90 92 87 78 76 72 70 72 75 75 75 75 77 76 73 72 74 73 75 78 77 74 71 68 70 73 73 74 75 74 75 73 64 71 88 93 84 76 74 71 69 67 67
92 87 82 83 79 75 73 74 75 78 80 80 77 78 79 76 77 79 77 79 79 79 77 74 72 71 71 72 72 70 65 57 48 47 65 75 76 78 75 71 68 63 61
88 89 87 86 82 79 76 76 76 79 79 82 82 79 80 80 78 77 77 78 79 79 79 80 77 74 69 67 66 63 53 43 44 53 67 71 68 75 74 69 65 62 60
94 98 97 93 88 85 83 81 79 80 85 83 84 82 84 84 79 77 77 77 78 77 78 82 81 78 72 67 61 53 42 36 41 60 72 78 75 74 71 66 63 60 56
98 102 107 103 96 92 90 88 85 84 88 86 85 84 85 89 87 82 82 82 80 81 82 82 82 79 75 67 57 45 31 26 55 71 77 78 78 77 73 66 62 57 55
107 112 112 110 105 100 99 97 94 92 92 91 90 88 88 94 95 88 87 86 85 85 86 85 84 81 74 68 59 42 28 24 55 73 82 81 81 77 72 68 62 56 55
101 113 125 132 122 113 107 106 107 104 104 103 101 99 98 100 101 94 96 96 92 90 91 91 88 84 80 74 65 47 34 27 40 57 78 78 81 77 73 71 65 60 58
105 105 117 131 134 133 127 122 122 123 124 120 118 119 117 113 108 105 100 98 99 96 96 97 96 92 86 77 64 41 27 27 53 59 70 80 78 75 74 72 69 64 62
105 112 116 125 126 126 129 133 144 142 141 139 143 145 142 134 119 107 102 108 105 103 103 105 108 107 103 101 77 35 23 54 65 66 66 75 75 71 70 69 68 64 63
117 112 115 119 119 114 112 126 141 133 141 147 130 136 134 106 104 107 116 120 118 115 120 127 130 127 131 129 106 68 46 59 65 67 68 73 71 66 64 65 67 69 67
106 93 95 97 106 110 107 106 98 100 113 100 100 102 100 103 115 121 141 140 138 134 124 124 135 109 96 93 91 83 71 61 64 65 65 71 68 63 62 65 68 68 67
97 96 93 96 103 101 101 107 120 106 96 86 65 93 89 81 84 102 122 135 129 105 89 81 74 69 63 75 70 68 67 72 77 77 67 69 68 65 63 65 66 66 65
103 105 92 85 90 98 99 119 111 103 98 101 72 75 96 95 103 99 94 86 90 98 97 81 72 66 53 55 60 65 59 66 82 83 73 69 69 64 63 63 64 64 63
115 100 86 81 89 100 109 104 96 103 99 87 75 85 94 91 92 83 82 78 69 75 85 93 95 82 68 64 57 58 59 63 76 95 98 78 70 67 63 60 60 61 62
120 110 102 91 86 85 80 74 80 91 98 84 65 54 94 95 85 76 74 78 74 69 69 76 87 88 91 83 75 65 56 52 56 78 90 97 82 68 68 65 60 59 62
112 107 103 94 87 80 81 84 77 78 79 74 73 45 60 85 86 77 72 65 72 71 73 82 82 76 76 74 70 69 68 61 50 62 74 83 89 82 69 69 65 58 59
111 113 116 104 95 87 79 83 70 79 83 80 70 56 46 59 82 81 72 74 79 72 68 73 71 74 81 82 81 78 73 68 54 56 62 71 78 84 83 74 67 60 56
113 114 109 106 105 99 80 76 71 56 62 72 67 69 53 46 71 81 75 72 77 73 70 75 86 85 93 105 90 80 84 91 72 54 54 61 63 70 73 75 72 63 59
129 127 124 134 115 105 90 87 90 80 64 66 68 77 82 77 83 81 72 64 67 68 78 95 96 91 89 105 94 70 52 72 87 74 65 63 60 65 65 66 60 65 60
139 136 129 121 113 112 109 99 108 108 94 87 75 80 79 89 92 110 101 92 88 79 60 75 99 87 87 130 118 111 78 38 35 68 73 78 71 66 57 60 56 57 66
127 131 124 124 119 113 102 73 77 74 61 77 103 87 63 77 71 73 90 97 106 114 108 109 104 108 118 311 24 110 124 127 85 34 70 83 77 69 59 52 54 57 68
138 134 126 121 112 103 102 98 108 113 112 138 146 147 144 117 109 97 88 90 105 107 123 130 107 82 99 340 335 2 85 128 135 120 27 70 79 76 72 61 52 54 61
127 112 106 107 107 104 111 117 107 103 129 127 111 120 114 103 109 118 104 81 85 111 122 104 104 96 106 79 46 31 36 44 111 132 135 110 64 64 80 84 71 63 60
122 112 104 110 109 116 131 137 148 148 156 147 138 127 114 128 136 127 138 151 123 104 106 130 142 171 158 94 44 92 127 120 117 109 131 140 123 108 96 89 88 86 77